User: anonymous   Login
Location: Unspecified
(0.0000°N, 0.0000°E)
Time: 12:06:16
(UTC+00:00)
Language:

Transit 2A Rocket - Orbit

View from above orbital plane
View from above orbital plane
View from above satellite
View from above satellite

Ground track
Ground track

The orbit data is extracted from the following two-line orbital elements,

1 00047U 60007C   16270.30268261 -.00000013  00000-0  22169-4 0  9997
2 00047  66.6661 191.2620 0233347 219.6253 138.7599 14.41857690939014
Epoch (UTC): 26 September 2016 07:15:51
Eccentricity: 0.0233347
inclination: 66.6661°
perigee height: 586 km
apogee height: 919 km
right ascension of ascending node: 191.2620°
argument of perigee: 219.6253°
revolutions per day: 14.41857690
mean anomaly at epoch: 138.7599°
orbit number at epoch: 93901

The dashed part of the orbit path shows where the satellite is in the earth's shadow,  

DLR